Location: Unspecified
(0.0000°N, 0.0000°E)
Time: 05:56:04
(UTC+00:00)

S80/T - Visible Passes

Search period start: 08 June 2023 00:00
Search period end: 18 June 2023 00:00
Orbit: 1313 x 1316 km, 66.1° (Epoch: 07 June)

Date Brightness Start Highest point End Pass type
(mag) Time Alt. Az. Time Alt. Az. Time Alt. Az.
10 Jun ? 22:26:21 10° NNW 22:26:23 10° NNW 22:26:23 10° NNW visible
12 Jun ? 21:04:00 10° NNE 21:05:25 15° NNE 21:05:25 15° NNE visible
13 Jun ? 21:18:42 10° N 21:20:59 20° N 21:20:59 20° N visible
14 Jun ? 21:33:59 10° NNW 21:36:36 23° NNW 21:36:36 23° NNW visible
15 Jun ? 19:58:20 10° NE 20:00:17 13° NE 20:00:17 13° NE visible
15 Jun ? 21:49:45 10° NNW 21:52:16 22° NW 21:52:16 22° NW visible
16 Jun ? 20:11:47 10° NNE 20:16:00 24° NE 20:16:00 24° NE visible
16 Jun ? 22:06:03 10° NW 22:07:59 18° NW 22:07:59 18° NW visible
17 Jun ? 20:26:23 10° N 20:31:46 38° NNE 20:31:46 38° NNE visible
17 Jun ? 22:23:08 10° WNW 22:23:45 12° WNW 22:23:45 12° WNW visible
